Location: Newark
(58.8333°N, 23.5833°E)
Time: 22:23:51
(UTC+00:00)

Explorer 7 - Pass Details

Date: 21 November 2019
Orbit: 485 x 680 km, 50.3° (Epoch: 10 December)

Event Time Altitude Azimuth Distance (km) Brightness Sun altitude
Rises 23:22:15 0° 237° (WSW) 2,926 - -49.1°
Reaches altitude 10° 23:24:56 10° 225° (SW) 1,985 - -49.0°
Maximum altitude 23:28:39 25° 170° (S) 1,214 - -48.8°
Drops below altitude 10° 23:32:12 10° 115° (ESE) 1,885 - -48.5°
Sets 23:34:40 0° 102° (ESE) 2,745 - -48.4°
